Home > Weather > Pickering > Past weeks

Flag for Canada Weather for the Past 2 Weeks in Pickering, Ontario, Canada

Now
45 °F

Passing clouds.


Feels Like: 41 °F
Forecast: 42 / 55 °F
Wind: 7 mph from Northeast

Location: Toronto Buttonville

Current Time: May 2, 2016 at 12:04:31 AM

Latest Report: May 1, 2016 at 11:00 PM


Visibility: 12 mi

Pressure: 30.06 "Hg

Humidity: 87%

Dew Point: 41 °F

Location of PickeringLocation

Historic Weather in Pickering — Graph

°F

Pickering Temperature Yesterday

Maximum temperature yesterday: 50 °F (at 2:46 AM)
Minimum temperature yesterday: 45 °F (at 6:00 AM)
Average temperature yesterday: 46 °F

High & Low Weather Summary for the Past Weeks

 TemperatureHumidityPressure
High75 °F (Apr 18, 2:00 PM)94% (Apr 21, 11:00 PM)30.50 "Hg (Apr 21, 11:00 PM)
Low32 °F (Apr 27, 4:00 AM)13% (Apr 20, 5:00 PM)29.74 "Hg (Apr 26, 5:00 AM)
Average47 °F54%30.11 "Hg
* Reported Apr 16 10:00 PM — May 1 10:00 PM, Pickering, Weather by CustomWeather, © 2016

Note: Actual official high and low records may vary slightly from our data, if they occured in-between our weather recording intervals... More about our weather records

Advertising

Pickering Weather History for the Previous 24 Hours

Scroll right to see more
 ConditionsComfort  
Time TempWeatherWind HumidityBarometerVisibility
10:00 PM
Sun, May 1
45 °FDrizzle. Mostly cloudy.10 mph87%30.07 "Hg9 mi
9:00 PM45 °FDrizzle. Fog.10 mph93%30.06 "Hg3 mi
8:00 PM45 °FDrizzle. Fog.8 mph93%30.04 "Hg6 mi
7:00 PM46 °FMostly cloudy.12 mph87%30.02 "Hg12 mi
6:00 PM46 °FMostly cloudy.13 mph93%30.01 "Hg8 mi
5:00 PM46 °FLight rain. Low clouds.9 mph93%30.02 "Hg8 mi
4:00 PM46 °FLow clouds.9 mph93%30.01 "Hg10 mi
3:00 PM48 °FLow clouds.13 mph87%30.01 "Hg10 mi
2:00 PM46 °FLight rain. Fog.13 mph93%29.99 "Hg3 mi
1:00 PM46 °FLight rain. Fog.12 mph93%30.01 "Hg2 mi
12:00 PM46 °FLight rain. Fog.13 mph93%29.99 "Hg2 mi
11:45 AM46 °FLight rain. Fog.14 mph93%30.00 "Hg2 mi
11:00 AM46 °FLight rain. Fog.9 mph93%30.01 "Hg2 mi
10:00 AM46 °FLight rain. Fog.12 mph93%30.01 "Hg5 mi
9:00 AM45 °FLight rain. Fog.9 mph93%30.02 "Hg6 mi
8:54 AM45 °FLight rain. Fog.9 mph93%30.02 "Hg6 mi
8:00 AM45 °FLight rain. Mostly cloudy.10 mph87%30.02 "Hg10 mi
7:00 AM45 °FLight rain. Mostly cloudy.13 mph81%30.00 "Hg12 mi
6:00 AM45 °FLight rain. Overcast.10 mph81%30.02 "Hg10 mi
5:00 AM46 °FLight rain. Overcast.9 mph76%30.05 "Hg8 mi
4:00 AM46 °FLight rain. Haze.7 mph76%30.05 "Hg11 mi
3:00 AM48 °FSprinkles. Mostly cloudy.7 mph54%30.06 "Hg12 mi
2:46 AM50 °FSprinkles. Haze.8 mph47%30.06 "Hg13 mi
2:00 AM48 °FPartly cloudy.7 mph43%30.07 "Hg15 mi
1:00 AM48 °FPassing clouds.8 mph40%30.09 "Hg15 mi
12:00 AM48 °FPassing clouds.9 mph37%30.11 "Hg15 mi
Weather by CustomWeather, © 2016

See weather overviewHow to use our weather pages